AirNav   Air Wisconsin Up To $57,000 Bonus
 
 1430 users online  

WN09 Bucky's Airpark
Plainfield, Wisconsin, USA

GOING TO PLAINFIELD?


FAA INFORMATION EFFECTIVE 25 FEBRUARY 2021

Location

FAA Identifier: WN09
Lat/Long: 44-09-52.0000N 089-30-29.0000W
44-09.866667N 089-30.483333W
44.1644444,-89.5080556
(estimated)
Elevation: 1145 ft. / 349 m (estimated)
From city: 3 miles S of PLAINFIELD, WI
Time zone: UTC -6 (UTC -5 during Daylight Saving Time)
Zip code: 54966

Airport Operations

Airport use: Private use. Permission required prior to landing
Activation date: 12/2003
Control tower: no
ARTCC: CHICAGO CENTER
FSS: GREEN BAY FLIGHT SERVICE STATION
Attendance: UNATNDD
Wind indicator: yes
Segmented circle: no

Airport Communications

WX AWOS-3PT at Y50 (11 nm SE): 119.475 (920-787-0515)
WX ASOS at ISW (18 nm NW): 126.575 (715-421-2120)

Nearby radio navigation aids

VOR radial/distance  VOR name  Freq  Var
DLLr014/38.4DELLS VORTAC117.0003E

 
NDB name  Hdg/Dist  Freq  Var  ID
WISCONSIN RAPIDS131/18.621501WISW .. ... .--

Airport Services

Runway Information

Runway 18/36

Dimensions: 1650 x 90 ft. / 503 x 27 m
Surface: turf
RUNWAY 18  RUNWAY 36
Traffic pattern: leftleft
Obstructions: none40 ft. pline, marked, 216 ft. from runway

Airport Ownership and Management from official FAA records

Ownership: Privately-owned
Owner: TOM BUCHBERGER
N5160 5TH DRIVE
PLAINFIELD, WI 54966
Phone 715-335-8210
Manager: TOM BUCHBERGER
N 5160 5TH DRIVE
PLAINFIELD, WI 54966
Phone 715-335-8210

Airport Operational Statistics

Aircraft based on the field: 2
Single engine airplanes: 2
    

Additional Remarks

RY 18 IS FOR ARR USE ONLY AND 36 IS FOR DEP ONLY.
FOR CD CTC CHICAGO ARTCC AT 630-906-8921.

Instrument Procedures

There are no published instrument procedures at WN09.

Some nearby airports with instrument procedures:

Y50 - Wautoma Municipal Airport (11 nm SE)
63C - Adams County Airport-Legion Field (17 nm SW)
KISW - Alexander Field South Wood County Airport (18 nm NW)
KSTE - Stevens Point Municipal Airport (23 nm N)
KPCZ - Waupaca Municipal Airport (23 nm NE)
 
Loc | Ops | Rwys | IFR | FBO | Links
Com | Nav | Svcs | Stats | Notes
Area around WN09 (Bucky's Airpark)
 
Road maps at: MapQuest Bing Google
 
Aerial photo
No photo
 
Sectional chart

 
Airport distance calculator
Flying to Bucky's Airpark? Find the distance to fly.

From to WN09

Sunrise and sunset
Times for 05-Mar-2021
 Local
(UTC-6)
 Zulu
(UTC)
Morning civil twilight06:0012:00
Sunrise06:2912:29
Sunset17:5023:50
Evening civil twilight18:1900:19

Current date and time
Zulu (UTC)  05-Mar-2021 17:17:29
Local (UTC-6)  05-Mar-2021 11:17:29
 
METAR
KY50 
11nm SE 
051656Z AUTO 27004KT 10SM OVC095 06/M06 A3037 RMK AO2 SLP296 T00561061 $
KISW 
19nm NW 
051654Z AUTO 32009KT 10SM OVC100 06/M06 A3037 RMK AO2 SLP298 T00561056
KSTE 
22nm N 
051655Z AUTO 36006KT 10SM OVC085 03/M08 A3036 RMK AO2 T00331083
TAF
KCWA 
37nm N 
051121Z 0512/0612 29005KT P6SM BKN080 FM051500 32007KT P6SM SCT090 FM052300 34003KT P6SM SKC FM060900 VRB03KT 6SM BR SCT250
KATW 
43nm E 
051121Z 0512/0612 27008KT P6SM BKN080 FM051400 32008KT P6SM SCT120 FM052300 33004KT P6SM SKC FM060400 35003KT P6SM SKC
NOTAMs
Click for the latest NOTAMs
NOTAMs are issued by the DoD/FAA and will open in a separate window not controlled by AirNav.

 

 
 

Would you like to see your business listed on this page?

 If your business provides an interesting product or service to pilots, flight crews, aircraft, or users of the Bucky's Airpark, you should consider listing it here.  To start the listing process, click on the button below
 
Add a business
 

Other Pages about Bucky's Airpark

Update a link
 
Copyright © AirNav, LLC. All rights reserved. Privacy Policy  Contact